Regional Weather Roundup
Issued by NWS

Home | Current Version | Previous Version | Text Only | Print | Product List | Glossary On
Versions: 1 2 3 4 5 6 7 8 9 10 11 12 13 14 15 16 17 18 19 20 21 22 23 24 25 26 27
000
ASUS46 KSEW 250810
RWRWA

WASHINGTON REGIONAL WEATHER ROUNDUP
NATIONAL WEATHER SERVICE SEATTLE WA
100 AM PDT SUN SEP 25 2016

NOTE:"FAIR" INDICATES FEW OR NO CLOUDS BELOW 12,000 FEET WITH NO
SIGNIFICANT WEATHER AND/OR OBSTRUCTIONS TO VISIBILITY.

WAZ505-507>509-250900-
SEATTLE, TACOMA, EVERETT, AND VICINITY

CITY           SKY/WX    TMP DP  RH WIND       PRES   REMARKS
EVERETT        CLOUDY    57  52  83 N5        30.40R
BOEING FIELD   CLOUDY    62  48  60 N3        30.39R
RENTON         CLOUDY    61  52  72 CALM      30.39R
SEATAC AIRPORT CLOUDY    60  50  69 CALM      30.40R
JBLM-MCCHORD   CLOUDY    59  52  78 CALM      30.39R
PUYALLUP       CLOUDY    57  52  82 CALM      30.40R
BREMERTON      CLOUDY    54  52  94 CALM      30.43R
JBLM-FT LEWIS  CLOUDY    59  52  77 CALM      30.39R
TACOMA NARROWS CLOUDY    59  50  72 CALM      30.39S
$$

WAZ001-503-506-510-514-515-250900-
NORTH INTERIOR

CITY           SKY/WX    TMP DP  RH WIND       PRES   REMARKS
BELLINGHAM     CLOUDY    56  52  86 NE3       30.39F
FRIDAY HARBOR  CLOUDY    55  51  86 CALM      30.40F
EASTSOUND      MOCLDY    57  50  77 CALM      30.37F
PORT ANGELES   CLOUDY    56  51  84 S3        30.39F
EDIZ HOOK      CLOUDY    52  50  92 E3        30.39F
PORT TOWNSEND  CLOUDY    55  52  88 CALM      30.40F
NAS WHIDBEY    MOCLDY    57  51  80 CALM      30.43S
ARLINGTON      CLOUDY    57  48  72 CALM      30.41S
BURLINGTON     CLOUDY    57  54  88 NE7       30.40S
$$

WAZ020-022-039-040-504-511-512-250900-
SOUTHWEST INTERIOR

CITY           SKY/WX    TMP DP  RH WIND       PRES   REMARKS
SHELTON        CLOUDY    58  53  84 CALM      30.37R
OLYMPIA        CLOUDY    56  53  90 CALM      30.39R
CHEHALIS       CLOUDY    57  54  88 CALM      30.39S
KELSO          CLOUDY    56  52  86 CALM      30.40R
VANCOUVER      CLOUDY    57  51  80 CALM      30.38F
SCAPPOOSE, OR  CLOUDY    55  50  83 NW3       30.38S
PORTLAND, OR   MOCLDY    56  50  80 CALM      30.39S
$$

WAZ021-516-517-250900-
WASHINGTON COAST

CITY           SKY/WX    TMP DP  RH WIND       PRES   REMARKS
FORKS          CLOUDY    56  53  90 CALM      30.37S
HOQUIAM        CLOUDY    59  57  93 NE6       30.38R
ASTORIA, OR    CLOUDY    60  54  80 SE3       30.37S
$$

WAZ019-023-024-040-518-519-250900-
CASCADE MOUNTAINS AND COLUMBIA GORGE

CITY           SKY/WX    TMP DP  RH WIND       PRES   REMARKS
STAMPEDE PASS  CLOUDY    48  41  76 CALM      30.43S
TROUTDALE, OR  CLOUDY    54  49  83 CALM      30.39S
THE DALLES, OR PTCLDY    58  41  53 VRB3      30.36R
$$

WAZ026-027-041>044-520-521-250900-
EAST SLOPES

CITY           SKY/WX    TMP DP  RH WIND       PRES   REMARKS
OMAK           CLOUDY    60  37  42 SW5       30.34S
WENATCHEE      CLOUDY    62  38  40 W8        30.34R
ELLENSBURG     CLOUDY    59  43  55 W7        30.36R
YAKIMA         CLEAR     53  40  61 W3        30.36S
$$

WAZ028-034-035-250900-
COLUMBIA BASIN

CITY           SKY/WX    TMP DP  RH WIND       PRES   REMARKS
EPHRATA        CLOUDY    57  41  55 CALM      30.34R
MOSES LAKE     CLOUDY    60  39  45 S8        30.34S
PASCO          PTCLDY    49  42  77 N3        30.36S
HERMISTON, OR  CLEAR     47  39  74 CALM      30.36R
$$

WAZ036>038-250900-
NORTHEAST WASHINGTON

CITY           SKY/WX    TMP DP  RH WIND       PRES   REMARKS
SPOKANE GEIGER MOCLDY    54  35  48 S7        30.38R
SPOKANE FELTS  CLOUDY    54  39  57 NE3       30.39R
FAIRCHILD AFB  CLOUDY    53  36  52 S1        30.38R
COEURDALENE,ID NOT AVBL
DEER PARK      PTCLDY    47  36  65 CALM      30.39R
$$

WAZ029>033-250900-
SOUTHEAST WASHINGTON

CITY           SKY/WX    TMP DP  RH WIND       PRES   REMARKS
PULLMAN        PTCLDY    42  33  70 CALM      30.42R
LEWISTON, ID   CLEAR     50  36  58 SE5       30.39R
WALLA WALLA    CLEAR     54  38  54 E7        30.36S
PENDLETON, OR  CLEAR     50  38  63 SE10      30.37S
$$




USA.gov is the U.S. government's official web portal to all federal, state and local government web resources and services.